Location: Nitra
(0.0000°N, 18.0833°E)
Time: 09:10:00
(UTC+01:00)

GPS 2-12 Rocket1 - Pass Details

Date: 25 September 2022
Orbit: 583 x 647 km, 20.0° (Epoch: 28 November)

Event Time Altitude Azimuth Distance (km) Brightness Sun altitude
Rises 20:11:14 0° 289° (WNW) 2,805 7.6 -23.0°
Reaches altitude 10° 20:13:32 10° 287° (WNW) 1,914 6.5 -23.6°
Enters shadow 20:17:56 77° 214° (SW) 618 3.0 -24.7°
